Home   Weather   Pau   Past weeks

Flag for France Past Weather in Pau, Aquitaine, France — Yesterday and Last 2 Weeks

Now
77 °F

Sunny.


Feels Like: 79 °F
Forecast: 55 / 83 °F
Wind: 6 mph from Southwest

Location: Pau Airport

Current Time: Sep 28, 2016 at 3:42:34 PM

Latest Report: Sep 28, 2016 at 3:00 PM


Visibility: N/A

Pressure: 30.36 "Hg

Humidity: 47%

Dew Point: 55 °F

Location of PauLocation

Past Weather in Pau — Graph

°F

Pau Temperature Yesterday

Maximum temperature yesterday: 73 °F (at 3:00 PM)
Minimum temperature yesterday: 59 °F (at 3:00 AM)
Average temperature yesterday: 65 °F

High & Low Weather Summary for the Past Weeks

 TemperatureHumidityPressure
High90 °F (Sep 13, 4:30 PM)100% (Sep 15, 1:30 AM)30.45 "Hg (Sep 15, 1:30 AM)
Low50 °F (Sep 15, 5:00 AM)29% (Sep 24, 4:30 PM)29.65 "Hg (Sep 13, 4:30 PM)
Average63 °F79%30.12 "Hg
* Reported Sep 13 2:00 PM — Sep 28 2:00 PM, Pau, Weather by CustomWeather, © 2016

Note: Actual official high and low records may vary slightly from our data, if they occured in-between our weather recording intervals... More about our weather records

Advertising

Pau Weather History for the Previous 24 Hours

Scroll right to see more
 ConditionsComfort  
Time TempWeatherWind HumidityBarometerVisibility
2:00 PM
Wed, Sep 28
75 °FPassing clouds.5 mph50%30.39 "HgN/A
1:30 PM75 °FScattered clouds.6 mph54%30.39 "HgN/A
1:00 PM73 °FPassing clouds.3 mph61%30.42 "HgN/A
12:30 PM72 °FPassing clouds.3 mph65%30.42 "HgN/A
12:00 PM70 °FSunny.3 mph73%30.45 "HgN/A
11:30 AM66 °FPassing clouds.3 mph83%30.45 "HgN/A
11:00 AM64 °FPartly sunny.2 mph88%30.45 "HgN/A
10:30 AM63 °FPartly sunny.No wind94%30.45 "HgN/A
10:00 AM63 °FScattered clouds.No wind94%30.45 "HgN/A
9:30 AM61 °FPassing clouds.No wind100%30.42 "Hg4 mi
9:00 AM59 °FSunny.No wind100%30.42 "Hg1 mi
8:30 AM59 °FPartly sunny.No wind94%30.42 "Hg4 mi
8:00 AM57 °FDense fog.2 mph94%30.42 "Hg0 mi
7:30 AM57 °FDense fog.No wind94%30.39 "Hg1 mi
7:00 AM59 °FDense fog.No wind94%30.39 "Hg0 mi
6:30 AM59 °FPassing clouds.No wind88%30.39 "Hg1 mi
6:00 AM61 °FOvercast.2 mph94%30.39 "Hg2 mi
5:30 AM61 °FPassing clouds.No wind94%30.39 "Hg1 mi
5:00 AM61 °FMostly cloudy.2 mph94%30.39 "Hg1 mi
4:30 AM63 °FOvercast.No wind88%30.39 "Hg4 mi
4:00 AM63 °FMostly cloudy.No wind94%30.39 "HgN/A
3:30 AM63 °FMostly cloudy.2 mph94%30.39 "HgN/A
3:00 AM63 °FMostly cloudy.2 mph88%30.39 "HgN/A
2:30 AM63 °FMostly cloudy.No wind88%30.39 "HgN/A
2:00 AM63 °FMostly cloudy.No wind88%30.39 "HgN/A
1:30 AM63 °FMostly cloudy.No wind88%30.39 "HgN/A
1:00 AM63 °FMostly cloudy.3 mph88%30.39 "HgN/A
12:30 AM63 °FMostly cloudy.3 mph88%30.39 "HgN/A
12:00 AM63 °FOvercast.2 mph88%30.39 "HgN/A
11:30 PM
Tue, Sep 27
63 °FOvercast.1 mph88%30.39 "HgN/A
11:00 PM63 °FOvercast.No wind88%30.39 "HgN/A
10:30 PM63 °FOvercast.2 mph88%30.39 "HgN/A
10:00 PM64 °FOvercast.No wind83%30.39 "HgN/A
9:30 PM63 °FOvercast.2 mph88%30.39 "HgN/A
9:00 PM63 °FPassing clouds.2 mph88%30.36 "HgN/A
8:30 PM63 °FOvercast.7 mph83%30.36 "HgN/A
8:00 PM64 °FPassing clouds.5 mph78%30.36 "HgN/A
7:30 PM66 °FOvercast.5 mph73%30.36 "HgN/A
7:00 PM68 °FPartly sunny.6 mph73%30.33 "HgN/A
6:30 PM72 °FPartly sunny.6 mph61%30.33 "HgN/A
6:00 PM70 °FPassing clouds.9 mph69%30.33 "HgN/A
5:30 PM70 °FBroken clouds.9 mph64%30.33 "HgN/A
5:00 PM72 °FMostly cloudy.10 mph61%30.33 "HgN/A
4:30 PM72 °FMore clouds than sun.8 mph61%30.33 "HgN/A
4:00 PM72 °FMostly cloudy.9 mph57%30.33 "HgN/A
3:30 PM72 °FPartly sunny.8 mph57%30.33 "HgN/A
3:00 PM73 °FOvercast.6 mph57%30.33 "HgN/A
Weather by CustomWeather, © 2016

See weather overviewHow to use our weather pages